• In Uzbekistan
  • List of Countries
  • For 7 days
  • Water Temperature
  • Satellite Maps
  • Weather Map
  • Weather Widgets
  • user-avatar
    Login

    Hourly Weather Karakol

    Today, 27 June, Thursday

    Time Temperature Precipitation Wind Pressure Humidity
    00:00 +13°C° 0 mm 2 mps 605 mmHg 61%
    01:00 +13°C° 0 mm 2 mps 605 mmHg 60%
    02:00 +12°C° 0 mm 2 mps 605 mmHg 59%
    03:00 +13°C° 0 mm 2 mps 605 mmHg 58%
    04:00 +13°C° 0 mm 2 mps 605 mmHg 57%
    05:00 +13°C° 0 mm 2 mps 605 mmHg 58%
    06:00 +15°C° 0 mm 2 mps 606 mmHg 54%
    07:00 +18°C° 0 mm 1 mps 606 mmHg 50%
    08:00 +20°C° 0 mm 1 mps 607 mmHg 46%
    09:00 +20°C° 0 mm 2 mps 607 mmHg 43%
    10:00 +21°C° 0 mm 2 mps 607 mmHg 40%
    11:00 +22°C° 0 mm 3 mps 607 mmHg 37%
    12:00 +22°C° 0.1 mm 3 mps 607 mmHg 36%
    13:00 +22°C° 0.1 mm 3 mps 607 mmHg 35%
    14:00 +24°C° 0.1 mm 3 mps 607 mmHg 34%
    15:00 +24°C° 0.1 mm 3 mps 607 mmHg 34%
    16:00 +22°C° 0.1 mm 3 mps 606 mmHg 34%
    17:00 +23°C° 0.1 mm 2 mps 606 mmHg 34%
    18:00 +19°C° 0 mm 2 mps 606 mmHg 40%
    19:00 +18°C° 0 mm 1 mps 605 mmHg 47%
    20:00 +15°C° 0 mm 1 mps 604 mmHg 53%
    21:00 +14°C° 0 mm 1 mps 604 mmHg 52%
    22:00 +14°C° 0 mm 1 mps 604 mmHg 51%
    23:00 +14°C° 0 mm 2 mps 604 mmHg 50%

    Tomorrow, 28 June, Friday

    Time Temperature Precipitation Wind Pressure Humidity
    00:00 +14°C° 0 mm 1 mps 604 mmHg 50%
    01:00 +13°C° 0 mm 1 mps 604 mmHg 50%
    02:00 +13°C° 0 mm 1 mps 604 mmHg 50%
    03:00 +13°C° 0 mm 1 mps 604 mmHg 49%
    04:00 +13°C° 0 mm 1 mps 604 mmHg 49%
    05:00 +14°C° 0 mm 2 mps 604 mmHg 48%
    06:00 +16°C° 0 mm 1 mps 605 mmHg 44%
    07:00 +19°C° 0 mm 1 mps 606 mmHg 39%
    08:00 +21°C° 0 mm 1 mps 607 mmHg 35%
    09:00 +21°C° 0 mm 2 mps 607 mmHg 34%
    10:00 +23°C° 0 mm 2 mps 607 mmHg 33%
    11:00 +24°C° 0 mm 3 mps 607 mmHg 32%
    12:00 +24°C° 0.1 mm 3 mps 607 mmHg 32%
    13:00 +25°C° 0.1 mm 3 mps 607 mmHg 32%
    14:00 +25°C° 0.1 mm 4 mps 607 mmHg 33%
    15:00 +24°C° 0.2 mm 3 mps 606 mmHg 35%
    16:00 +24°C° 0.2 mm 3 mps 606 mmHg 38%
    17:00 +22°C° 0.2 mm 3 mps 606 mmHg 40%
    18:00 +20°C° 0.1 mm 2 mps 606 mmHg 46%
    19:00 +18°C° 0.1 mm 2 mps 605 mmHg 51%
    20:00 +16°C° 0.1 mm 1 mps 605 mmHg 57%
    21:00 +16°C° 0 mm 1 mps 605 mmHg 57%
    22:00 +15°C° 0 mm 1 mps 605 mmHg 57%
    23:00 +15°C° 0 mm 1 mps 605 mmHg 58%

    Day after tomorrow, 29 June, Saturday

    Time Temperature Precipitation Wind Pressure Humidity
    00:00 +15°C° 0 mm 1 mps 605 mmHg 59%
    01:00 +14°C° 0 mm 1 mps 604 mmHg 60%
    02:00 +14°C° 0 mm 1 mps 604 mmHg 61%
    03:00 +14°C° 0 mm 1 mps 605 mmHg 60%
    04:00 +15°C° 0 mm 1 mps 605 mmHg 59%
    05:00 +15°C° 0 mm 1 mps 605 mmHg 58%
    06:00 +18°C° 0 mm 1 mps 606 mmHg 52%
    07:00 +20°C° 0 mm 1 mps 607 mmHg 46%
    08:00 +22°C° 0 mm 1 mps 607 mmHg 40%
    09:00 +23°C° 0.1 mm 2 mps 608 mmHg 38%
    10:00 +24°C° 0.1 mm 2 mps 608 mmHg 36%
    11:00 +25°C° 0.1 mm 3 mps 608 mmHg 34%
    12:00 +25°C° 0.2 mm 3 mps 608 mmHg 34%
    13:00 +25°C° 0.2 mm 3 mps 608 mmHg 34%
    14:00 +26°C° 0.2 mm 4 mps 607 mmHg 35%
    15:00 +25°C° 0.3 mm 3 mps 607 mmHg 37%
    16:00 +25°C° 0.3 mm 2 mps 607 mmHg 38%
    17:00 +24°C° 0.3 mm 2 mps 607 mmHg 40%
    18:00 +22°C° 0 mm 1 mps 606 mmHg 47%
    19:00 +20°C° 0 mm 1 mps 606 mmHg 54%
    20:00 +18°C° 0 mm 1 mps 605 mmHg 60%
    21:00 +16°C° 0 mm 1 mps 605 mmHg 59%
    22:00 +16°C° 0 mm 1 mps 605 mmHg 58%
    23:00 +16°C° 0 mm 1 mps 605 mmHg 56%

    30 June, Sunday

    Time Temperature Precipitation Wind Pressure Humidity
    00:00 +15°C° 0 mm 2 mps 605 mmHg 55%
    01:00 +15°C° 0 mm 2 mps 605 mmHg 54%
    02:00 +15°C° 0 mm 2 mps 605 mmHg 53%
    03:00 +15°C° 0 mm 1 mps 605 mmHg 52%
    04:00 +15°C° 0 mm 1 mps 605 mmHg 51%
    05:00 +15°C° 0 mm 1 mps 605 mmHg 50%
    06:00 +19°C° 0 mm 1 mps 606 mmHg 46%
    07:00 +21°C° 0 mm 1 mps 607 mmHg 41%
    08:00 +23°C° 0 mm 1 mps 608 mmHg 36%
    09:00 +25°C° 0 mm 2 mps 608 mmHg 34%
    10:00 +26°C° 0 mm 2 mps 608 mmHg 32%
    11:00 +27°C° 0 mm 3 mps 608 mmHg 31%
    12:00 +27°C° 0.1 mm 3 mps 608 mmHg 31%
    13:00 +27°C° 0.1 mm 3 mps 608 mmHg 31%
    14:00 +27°C° 0.1 mm 4 mps 608 mmHg 32%
    15:00 +27°C° 0.1 mm 3 mps 607 mmHg 33%
    16:00 +26°C° 0.1 mm 3 mps 607 mmHg 35%
    17:00 +26°C° 0.1 mm 2 mps 607 mmHg 37%
    18:00 +23°C° 0 mm 2 mps 606 mmHg 43%
    19:00 +21°C° 0 mm 1 mps 606 mmHg 49%
    20:00 +19°C° 0 mm 1 mps 605 mmHg 56%
    21:00 +18°C° 0 mm 1 mps 605 mmHg 56%
    22:00 +18°C° 0 mm 1 mps 605 mmHg 56%
    23:00 +18°C° 0 mm 1 mps 605 mmHg 55%

    1 July, Monday

    Time Temperature Precipitation Wind Pressure Humidity
    00:00 +16°C° 0 mm 1 mps 605 mmHg 56%
    01:00 +16°C° 0 mm 1 mps 604 mmHg 57%
    02:00 +15°C° 0 mm 1 mps 604 mmHg 57%
    03:00 +16°C° 0 mm 1 mps 604 mmHg 57%
    04:00 +16°C° 0 mm 1 mps 605 mmHg 56%
    05:00 +16°C° 0 mm 1 mps 605 mmHg 55%
    06:00 +20°C° 0 mm 1 mps 606 mmHg 50%
    07:00 +22°C° 0 mm 1 mps 607 mmHg 45%
    08:00 +24°C° 0 mm 1 mps 607 mmHg 39%
    09:00 +25°C° 0 mm 2 mps 608 mmHg 36%
    10:00 +26°C° 0 mm 3 mps 608 mmHg 33%
    11:00 +27°C° 0 mm 3 mps 608 mmHg 31%
    12:00 +27°C° 0 mm 4 mps 608 mmHg 31%
    13:00 +28°C° 0 mm 4 mps 608 mmHg 31%
    14:00 +28°C° 0 mm 4 mps 607 mmHg 31%
    15:00 +27°C° 0.2 mm 3 mps 607 mmHg 33%
    16:00 +26°C° 0.2 mm 3 mps 607 mmHg 36%
    17:00 +26°C° 0.2 mm 3 mps 607 mmHg 38%
    18:00 +24°C° 0 mm 2 mps 607 mmHg 44%
    19:00 +21°C° 0 mm 2 mps 607 mmHg 50%
    20:00 +20°C° 0 mm 1 mps 607 mmHg 56%
    21:00 +19°C° 0 mm 1 mps 607 mmHg 59%
    22:00 +18°C° 0 mm 1 mps 607 mmHg 63%
    23:00 +16°C° 0 mm 1 mps 606 mmHg 66%

    2 July, Tuesday

    Time Temperature Precipitation Wind Pressure Humidity
    00:00 +16°C° 0.1 mm 1 mps 606 mmHg 68%
    01:00 +16°C° 0.1 mm 1 mps 606 mmHg 71%
    02:00 +15°C° 0.1 mm 1 mps 606 mmHg 73%
    03:00 +16°C° 0 mm 1 mps 606 mmHg 72%
    04:00 +16°C° 0 mm 1 mps 607 mmHg 71%
    05:00 +16°C° 0 mm 1 mps 607 mmHg 70%
    06:00 +19°C° 0 mm 1 mps 608 mmHg 64%
    07:00 +21°C° 0 mm 1 mps 609 mmHg 59%
    08:00 +23°C° 0 mm 1 mps 609 mmHg 53%
    09:00 +24°C° 0.2 mm 2 mps 609 mmHg 51%
    10:00 +24°C° 0.2 mm 2 mps 609 mmHg 48%
    11:00 +25°C° 0.2 mm 3 mps 609 mmHg 45%
    12:00 +25°C° 0.1 mm 3 mps 609 mmHg 45%
    13:00 +26°C° 0.1 mm 3 mps 609 mmHg 44%
    14:00 +26°C° 0.1 mm 3 mps 609 mmHg 44%
    15:00 +26°C° 0 mm 3 mps 609 mmHg 44%
    16:00 +25°C° 0 mm 3 mps 609 mmHg 44%
    17:00 +25°C° 0 mm 2 mps 609 mmHg 45%
    18:00 +23°C° 0 mm 2 mps 608 mmHg 52%
    19:00 +21°C° 0 mm 1 mps 608 mmHg 59%
    20:00 +18°C° 0 mm 1 mps 607 mmHg 67%
    21:00 +18°C° 0 mm 1 mps 607 mmHg 66%
    22:00 +18°C° 0 mm 1 mps 607 mmHg 65%
    23:00 +16°C° 0 mm 1 mps 607 mmHg 64%
    Show more